Terminal Aerodrome Forecast
Issued by NWS Lake Charles, LA

Home | Current Version | Previous Version | Text Only | Print | Product List | Glossary On
Versions: 1 2 3 4 5 6 7 8 9 10 11 12 13 14 15 16 17 18 19
847
FTUS44 KLCH 241125
TAFLCH
TAF
KLCH 241125Z 2412/2512 14004KT P6SM SCT020 SCT250
     FM241500 16010KT P6SM SCT035 BKN250
     FM250100 15007KT P6SM FEW250
     FM250600 15006KT P6SM SCT015=

USA.gov is the U.S. government's official web portal to all federal, state and local government web resources and services.